Flag for Poland Weather past 2 weeks in Rzeszów, Poland

Now
68 °F

Passing clouds.


Feels Like: 68 °F
Forecast: 55 / 74 °F
Wind: 9 mph from Southwest

Location: Rzeszow-Jasionka

Current Time: Aug 29, 2014 at 12:58:39 PM

Latest Report: Aug 29, 2014 at 12:00 PM


Visibility: N/A

Pressure: 30.12 "Hg

Humidity: 56%

Dew point: 52 °F

Location of RzeszówLocation

Historic Weather in Rzeszów — Graph

°F

Rzeszów temperature yesterday

Maximum temperature yesterday: 68 °F (at 3:30 PM)
Minimum temperature yesterday: 52 °F (at 1:30 AM)
Average temperature yesterday: 58 °F

Past Weeks' High & Low Weather Summary

 TemperatureHumidityPressure
High77 °F (Aug 19, 2:30 PM)100% (Aug 14, 9:00 PM)30.12 "Hg (Aug 14, 9:00 PM)
Low43 °F (Aug 22, 3:00 AM)43% (Aug 22, 4:00 PM)29.74 "Hg (Aug 26, 3:30 PM)
Average59 °F81%29.95 "Hg
* Reported Aug 14 11:00 AM — Aug 29 11:30 AM, Rzeszów, Weather by CustomWeather, © 2014

Note: Actual official high and low records may vary slightly from our data, if they occured in-between our weather recording intervals... More about our weather records

Advertising

Rzeszów weather history for previous 24 hours

 ConditionsComfort  
Time TempWeatherWind HumidityBarometerVisibility
11:30 AM
Aug 29
68 °FPassing clouds.8 mph60%30.12 "HgN/A
11:00 AM66 °FPassing clouds.6 mph60%30.12 "HgN/A
10:30 AM66 °FSunny.7 mph64%30.12 "Hg10 mi
10:00 AM64 °FPassing clouds.7 mph68%30.12 "HgN/A
9:30 AM63 °FSunny.8 mph68%30.12 "Hg10 mi
9:00 AM61 °FSunny.6 mph72%30.12 "Hg10 mi
8:30 AM59 °FSunny.6 mph77%30.12 "Hg10 mi
8:00 AM55 °FSunny.6 mph82%30.12 "Hg10 mi
7:30 AM52 °FSunny.3 mph94%30.12 "Hg10 mi
7:00 AM50 °FSunny.3 mph94%30.12 "Hg10 mi
6:30 AM48 °FClear.3 mph94%30.12 "Hg10 mi
6:00 AM46 °FClear.7 mph93%30.12 "Hg10 mi
5:30 AM46 °FClear.5 mph100%30.12 "Hg10 mi
5:00 AM46 °FClear.5 mph93%30.09 "Hg10 mi
4:30 AM46 °FClear.5 mph100%30.09 "Hg10 mi
4:00 AM46 °FClear.6 mph93%30.09 "Hg10 mi
3:00 AM50 °FClear.1 mph94%30.12 "Hg10 mi
2:30 AM48 °FClear.5 mph94%30.09 "Hg10 mi
2:00 AM50 °FClear.3 mph94%30.09 "Hg10 mi
1:30 AM50 °FClear.8 mph94%30.09 "Hg10 mi
1:00 AM50 °FClear.8 mph88%30.09 "Hg10 mi
12:30 AM52 °FClear.8 mph88%30.09 "Hg10 mi
12:00 AM52 °FClear.9 mph88%30.09 "Hg10 mi
11:30 PM
Aug 28
54 °FPassing clouds.8 mph88%30.09 "HgN/A
11:00 PM52 °FClear.8 mph88%30.09 "Hg10 mi
10:30 PM52 °FClear.8 mph88%30.09 "Hg10 mi
10:00 PM52 °FClear.7 mph88%30.09 "Hg10 mi
9:30 PM54 °FClear.7 mph82%30.09 "Hg10 mi
9:00 PM55 °FClear.6 mph82%30.09 "Hg10 mi
8:30 PM55 °FClear.6 mph82%30.07 "Hg10 mi
8:00 PM57 °FSunny.6 mph77%30.07 "Hg10 mi
7:30 PM59 °FSunny.6 mph72%30.07 "Hg10 mi
7:00 PM61 °FSunny.7 mph68%30.07 "Hg10 mi
6:30 PM64 °FSunny.9 mph60%30.07 "Hg10 mi
6:00 PM66 °FSunny.14 mph56%30.07 "Hg10 mi
5:00 PM68 °FSunny.14 mph46%30.04 "Hg10 mi
4:30 PM68 °FScattered clouds.15 mph46%30.04 "HgN/A
4:00 PM68 °FScattered clouds.14 mph46%30.04 "HgN/A
3:30 PM68 °FScattered clouds.13 mph49%30.04 "HgN/A
3:00 PM66 °FScattered clouds.15 mph52%30.04 "HgN/A
2:30 PM66 °FScattered clouds.16 mph52%30.04 "HgN/A
1:30 PM66 °FScattered clouds.15 mph56%30.04 "HgN/A
1:00 PM63 °FPartly sunny.13 mph64%30.07 "HgN/A
12:30 PM63 °FPartly sunny.14 mph68%30.07 "HgN/A
12:00 PM63 °FPartly sunny.12 mph64%30.07 "HgN/A
Weather by CustomWeather, © 2014

See weather overviewHow to use our weather pages